This demonstration page uses our WeatherBlox Daily Observations layout. Learn more.

Left ArrowRight Arrow

44.8408, -93.29828

Hourly Observations for December 28, 2019

Temp ( °F °C ) Dew Point ( °F °C ) Humidity (%) Winds ( mph kmh ) Pressure ( in mb ) Visibility ( mi km ) Precip ( " mm )
12:53 am 00:53 Cloudy 25 -3.9 21 -6.1 85 85 SE 6 9 30.19 1022 7 11 0.00 0.00
1:53 am 01:53 Cloudy 26 -3.3 22 -5.6 84 84 ESE 5 7 30.19 1022 7 11 0.00 0.00
2:53 am 02:53 Cloudy 26 -3.3 22 -5.6 84 84 ESE 6 9 30.19 1022 7 11 0.00 0.00
3:53 am 03:53 Cloudy 27 -2.8 23 -5 85 85 E 7 11 30.15 1021 7 11 0.00 0.00
4:53 am 04:53 Cloudy 28 -2.2 23 -5 81 81 E 6 9 30.14 1021 8 13 0.00 0.00
5:37 am 05:37 Cloudy with Light Freezing Drizzle 28 -2.2 23 -5 81 81 ENE 6 9 30.16 1021 7 11 0.00 0.00
5:53 am 05:53 Cloudy with Light Freezing Rain 29 -1.7 24 -4.4 82 82 ENE 7 11 30.13 1020 5 8 0.01 0.25
6:53 am 06:53 Cloudy with Light Freezing Rain 31 -0.6 27 -2.8 85 85 ESE 7 11 30.09 1019 6 10 0.06 1.52
7:12 am 07:12 Cloudy 31 -0.6 27 -2.8 85 85 ESE 9 15 30.10 1019 8 13 0.00 0.00
7:53 am 07:53 Cloudy 32 0 27 -2.8 82 82 ESE 10 17 30.08 1019 8 13 0.00 0.00
8:53 am 08:53 Cloudy 33 0.6 27 -2.8 78 78 E 12 19 30.07 1018 8 13 0.00 0.00
9:53 am 09:53 Cloudy 34 1.1 27 -2.8 76 76 E 9 15 30.06 1018 9 14 0.00 0.00
10:25 am 10:25 Cloudy 34 1.1 26 -3.3 73 73 ESE 12 19 30.06 1018 6 10 0.00 0.00
10:35 am 10:35 Cloudy with Light Rain 34 1.1 26 -3.3 73 73 ESE 13 20 30.06 1018 5 8 0.00 0.00
10:53 am 10:53 Cloudy with Light Freezing Rain 34 1.1 26 -3.3 73 73 ESE 17 28 30.04 1017 6 10 0.01 0.25
11:22 am 11:22 Cloudy with Light Rain 34 1.1 27 -2.8 76 76 ESE 15 24 30.03 1017 6 10 0.01 0.25
11:53 am 11:53 Cloudy with Light Rain 34 1.1 28 -2.2 79 79 E 15 24 29.98 1015 6 10 0.03 0.76
12:36 pm 12:36 Cloudy with Light Rain 34 1.1 29 -1.7 82 82 E 16 26 29.97 1015 4 6 0.06 1.52
12:53 pm 12:53 Cloudy with Light Rain 34 1.1 29 -1.7 82 82 ESE 17 28 29.95 1014 4 6 0.06 1.52
1:03 pm 13:03 Cloudy with Light Rain 34 1.1 30 -1.1 85 85 ESE 13 20 29.95 1014 2 3 0.01 0.25
1:19 pm 13:19 Cloudy with Light Rain 33 0.6 30 -1.1 89 89 ESE 13 20 29.95 1014 3 4 0.02 0.51
1:34 pm 13:34 Cloudy with Mist and Fog 34 1.1 31 -0.6 89 89 ESE 13 20 29.94 1014 2 2 0.02 0.51
1:53 pm 13:53 Cloudy with Rain 34 1.1 31 -0.6 89 89 E 10 17 29.92 1013 2 2 0.05 1.27
2:02 pm 14:02 Cloudy with Rain 34 1.1 31 -0.6 89 89 ESE 15 24 29.93 1014 3 4 0.02 0.51
2:15 pm 14:15 Cloudy with Light Rain 34 1.1 31 -0.6 89 89 ESE 14 22 29.92 1013 3 5 0.05 1.27
2:28 pm 14:28 Cloudy with Light Rain 34 1.1 31 -0.6 89 89 ESE 13 20 29.92 1013 3 4 0.08 2.03
2:42 pm 14:42 Cloudy with Light Rain 34 1.1 31 -0.6 89 89 ESE 12 19 29.92 1013 3 5 0.09 2.29
2:53 pm 14:53 Cloudy with Light Rain 34 1.1 31 -0.6 89 89 E 15 24 29.90 1013 4 6 0.09 2.29
3:53 pm 15:53 Cloudy with Light Rain 34 1.1 31 -0.6 89 89 E 9 15 29.88 1012 5 8 0.01 0.25
4:53 pm 16:53 Cloudy with Mist and Fog 34 1.1 31 -0.6 89 89 E 12 19 29.85 1011 5 8 0.00 0.00
5:53 pm 17:53 Cloudy with Light Rain 34 1.1 31 -0.6 89 89 ENE 9 15 29.85 1011 5 8 0.00 0.00
6:53 pm 18:53 Cloudy with Rain 34 1.1 32 0 92 92 E 8 13 29.84 1011 3 5 0.06 1.52
7:53 pm 19:53 Cloudy with Light Rain 34 1.1 32 0 92 92 E 8 13 29.80 1009 5 8 0.05 1.27
8:53 pm 20:53 Cloudy with Light Rain 35 1.7 32 0 89 89 ENE 8 13 29.77 1008 5 8 0.06 1.52
9:53 pm 21:53 Cloudy with Light Rain 35 1.7 32 0 89 89 ENE 8 13 29.74 1007 5 8 0.06 1.52
10:53 pm 22:53 Cloudy with Light Rain 35 1.7 32 0 89 89 E 10 17 29.70 1006 6 10 0.05 1.27
11:53 pm 23:53 Cloudy with Light Rain 35 1.7 32 0 89 89 ENE 14 22 29.65 1004 7 11 0.02 0.51

Powered by AerisWeather